Zurück zum Katalog

SL-14 R/B

AktivPO
NORAD 20741·ROCKET BODY·🇷🇺 Russia

Gestartet Aug 8, 1990 von Plesetsk Cosmodrome

Loading…

Nächste Überflüge (nächste 24 Stunden)

TLE

AktuellSource: Space-Track

Epoche: Sep 14, 2026, 14:30 UTC

1 20741U 90070G   26257.60463133  .00000012  00000-0  11871-4 0  9993
2 20741  82.5815  13.8589 0035282 215.8325 155.4224 12.55718710654752

Verfolge SL-14 R/B in Echtzeit mit AllMySat

Download on the App Store